Regional Weather Roundup
Issued by NWS Raleigh/Durham, NC

Home | Current Version | Previous Version | Text Only | Print | Product List | Glossary On
Versions: 1 2 3 4 5 6 7 8 9 10 11 12 13 14 15 16 17 18 19 20 21 22 23 24 25 26 27 28 29 30 31 32 33 34 35 36 37 38 39 40 41 42 43 44 45 46 47 48 49 50
000
ASUS42 KRAH 241310
RWRRAH
NORTH CAROLINA WEATHER ROUNDUP
NATIONAL WEATHER SERVICE RALEIGH NC
900 AM EDT TUE APR 24 2018

NOTE: "FAIR" INDICATES FEW OR NO CLOUDS BELOW 12,000 FEET WITH NO
SIGNIFICANT WEATHER AND/OR OBSTRUCTIONS TO VISIBILITY.

NCZ001-053-055-056-065-067-241400-
WESTERN NORTH CAROLINA

CITY           SKY/WX    TMP DP  RH WIND       PRES   REMARKS
ASHEVILLE      LGT RAIN  52  51  97 W3        29.92S
JEFFERSON      RAIN      47  47  97 E14G21    29.98F
MORGANTON      DRIZZLE   52  52 100 N5        29.99S
HICKORY        CLOUDY    53  53 100 NE12      29.93F FOG
RUTHERFORDTON  LGT RAIN  53  53 100 N3        29.93F
MOUNT AIRY     LGT RAIN  52  49  87 E20G28    30.00F
BOONE          DRIZZLE   46  46 100 E6        29.97F
$$

NCZ021-022-025-041-071-084-088-241400-
CENTRAL NORTH CAROLINA

CITY           SKY/WX    TMP DP  RH WIND       PRES   REMARKS
CHARLOTTE      LGT RAIN  60  60 100 E10       29.91F FOG
GREENSBORO     LGT RAIN  54  54 100 E10       29.98S VSB 3/4
WINSTON-SALEM  LGT RAIN  52  52 100 NE10      29.99S FOG
RALEIGH-DURHAM LGT RAIN  59  58  96 E18G24    29.99F
FORT BRAGG     LGT RAIN  61  61 100 E15G25    29.93F
FAYETTEVILLE   CLOUDY    62  59  90 E12G24    29.93F
BURLINGTON     CLOUDY    58  56  93 E8        29.99F FOG
LAURINBURG     CLOUDY    63  61  93 E12       29.93F
$$

NCZ011-015-027-028-043-044-047-080-103-241400-
NORTHEASTERN NORTH CAROLINA

CITY           SKY/WX    TMP DP  RH WIND       PRES   REMARKS
ROCKY MT-WILSO LGT RAIN  59  57  93 VRB6      30.09S FOG
GREENVILLE     LGT RAIN  61  59  94 SE13G20   30.11S
WASHINGTON     RAIN      60  57  91 SE13G22   30.11S
ELIZABETH CITY RAIN      59  58  96 E16G25    30.17F FOG
MANTEO         CLOUDY    58  55  89 SE12G18   30.18S
CAPE HATTERAS  LGT RAIN  63  59  87 SE28G40   30.14S FOG
$$

NCZ078-087-090-091-093-098-101-241400-
SOUTHEASTERN NORTH CAROLINA

CITY           SKY/WX    TMP DP  RH WIND       PRES   REMARKS
LUMBERTON      CLOUDY    63  62  97 E10       29.92F FOG
GOLDSBORO      LGT RAIN  61  59  93 E22G28    30.03S FOG
KINSTON        RAIN      59  59 100 E12G24    30.07R
KENANSVILLE    HVY RAIN  61  59  94 E8G17     30.03S FOG
NEW BERN       RAIN      60  58  92 E10G26    30.08S FOG
CHERRY POINT   NOT AVBL
BEAUFORT       LGT RAIN  62  60  93 SE20G32   30.05F
JACKSONVILLE   HVY RAIN  62  61  96 E24G35    30.00F FOG
WILMINGTON     RAIN      63  61  93 SE8       29.96S FOG
$$




USA.gov is the U.S. government's official web portal to all federal, state and local government web resources and services.